This is the latest recevied weather packets stored in our database for station/object W0VI. If no packets are shown the sender has not sent any weather packets the latest 10 day(s).
| Time | Temp. | Humidity | Pressure | Rain* | Wind** | Luminosity | Snow |
|---|---|---|---|---|---|---|---|
| 1777804025 | 11.67° C | 56% | 1004.5 hPa | 0 mm | - | 0 W/m² | - |
| 1777803722 | 11.67° C | 55% | 1004.5 hPa | 0 mm | - | 0 W/m² | - |
| 1777803417 | 12.22° C | 54% | 1004.5 hPa | 0 mm | - | 0 W/m² | - |
| 1777803115 | 12.22° C | 52% | 1004.5 hPa | 0 mm | - | 0 W/m² | - |
| 1777802812 | 12.22° C | 53% | 1004.5 hPa | 0 mm | - | 0 W/m² | - |
| 1777802510 | 12.78° C | 52% | 1004.8 hPa | 0 mm | - | 0 W/m² | - |
| 1777802207 | 12.78° C | 51% | 1004.4 hPa | 0 mm | - | 0 W/m² | - |
| 1777801906 | 12.78° C | 51% | 1004.8 hPa | 0 mm | - | 0 W/m² | - |
| 1777801602 | 12.78° C | 51% | 1005 hPa | 0 mm | - | 0 W/m² | - |
| 1777801300 | 12.78° C | 50% | 1004.8 hPa | 0 mm | - | 0 W/m² | - |
| 1777800996 | 12.78° C | 50% | 1004.7 hPa | 0 mm | - | 0 W/m² | - |
| 1777800693 | 13.33° C | 49% | 1004.8 hPa | 0 mm | - | 0 W/m² | - |
| 1777800388 | 13.33° C | 49% | 1004.9 hPa | 0 mm | - | 0 W/m² | - |
| 1777800085 | 13.33° C | 48% | 1004.7 hPa | 0 mm | - | 0 W/m² | - |
| 1777799780 | 13.89° C | 47% | 1004.9 hPa | 0 mm | - | 0 W/m² | - |
| 1777799478 | 13.89° C | 48% | 1004.8 hPa | 0 mm | - | 0 W/m² | - |
| 1777799174 | 13.89° C | 47% | 1004.7 hPa | 0 mm | - | 0 W/m² | - |
| 1777798869 | 13.89° C | 48% | 1004.7 hPa | 0 mm | - | 0 W/m² | - |
| 1777798565 | 13.89° C | 47% | 1004.9 hPa | 0 mm | - | 0 W/m² | - |
| 1777798263 | 14.44° C | 48% | 1005 hPa | 0 mm | - | 0 W/m² | - |
| 1777797959 | 13.89° C | 47% | 1005.4 hPa | 0 mm | - | 0 W/m² | - |
| 1777797657 | 14.44° C | 47% | 1005.2 hPa | 0 mm | - | 0 W/m² | - |
| 1777797355 | 14.44° C | 47% | 1005.2 hPa | 0 mm | - | 0 W/m² | - |
| 1777797052 | 14.44° C | 47% | 1005.1 hPa | 0 mm | - | 0 W/m² | - |
| 1777796748 | 14.44° C | 49% | 1005.1 hPa | 0 mm | - | 0 W/m² | - |
* Rain latest hour (hover to see other rain measurements)
** Current wind speed in m/s (hover to see current wind gust speed)